AEN91A EDDH-EGPH

Flight info

Callsign AEN91A
Flight time 1h 23m
Altitude 38000
Route ELSOB3G ELSOB L619 OSTOR DCT OMIMA DCT VALBO DCT ROPAL DCT DIGBI DCT AGPED
Aircraft A320/M-SDE3FGHIRWY/LB1

Departure

Time 2026-04-21 13:43
Airport Hamburg Helmut Schmidt Airport (EDDH)

Arrival

Time 2026-04-21 15:07
Airport Edinburgh Airport (EGPH)
Time Latitude Longitude Altitude Speed Heading
2026-04-21 12:29 53.63073 10.00388 49 ft 0 kts 93°
2026-04-21 13:33 53.63073 10.00387 48 ft 1 kts 93°
2026-04-21 13:34 53.63075 10.00348 48 ft 4 kts 93°
2026-04-21 13:34 53.63076 10.00302 48 ft 4 kts 93°
2026-04-21 13:34 53.63078 10.00266 48 ft 4 kts 97°
2026-04-21 13:34 53.63084 10.00223 43 ft 4 kts 121°
2026-04-21 13:35 53.63102 10.00194 46 ft 4 kts 170°
2026-04-21 13:35 53.63107 10.00192 43 ft 0 kts 176°
2026-04-21 13:37 53.63101 10.00193 46 ft 5 kts 176°
2026-04-21 13:37 53.63057 10.00169 47 ft 6 kts 210°
2026-04-21 13:37 53.63017 10.00128 48 ft 7 kts 212°
2026-04-21 13:38 53.62961 10.00067 48 ft 10 kts 213°
2026-04-21 13:38 53.62920 9.99991 48 ft 8 kts 239°
2026-04-21 13:38 53.62897 9.99917 48 ft 0 kts 243°
2026-04-21 13:38 53.62897 9.99915 48 ft 0 kts 243°
2026-04-21 13:40 53.62897 9.99914 48 ft 1 kts 243°
2026-04-21 13:40 53.62881 9.99861 47 ft 9 kts 243°
2026-04-21 13:41 53.62863 9.99757 45 ft 9 kts 291°
2026-04-21 13:41 53.62887 9.99728 45 ft 0 kts 334°
2026-04-21 13:42 53.62979 9.99651 45 ft 50 kts 333°
2026-04-21 13:43 53.63501 9.99201 47 ft 116 kts 333°
2026-04-21 13:43 53.64377 9.98447 66 ft 163 kts 332°
2026-04-21 13:43 53.65345 9.97694 930 ft 145 kts 343°
2026-04-21 13:43 53.66267 9.96970 1754 ft 148 kts 336°
2026-04-21 13:44 53.67185 9.96132 2522 ft 151 kts 336°
2026-04-21 13:44 53.68101 9.95273 3317 ft 151 kts 338°
2026-04-21 13:44 53.69084 9.94418 3895 ft 169 kts 338°
2026-04-21 13:44 53.70200 9.93470 4260 ft 191 kts 337°
2026-04-21 13:45 53.71259 9.91909 4532 ft 221 kts 301°
2026-04-21 13:45 53.71495 9.89255 4957 ft 244 kts 262°
2026-04-21 13:45 53.71062 9.86322 5338 ft 270 kts 253°
2026-04-21 13:45 53.70444 9.83229 6072 ft 283 kts 250°
2026-04-21 13:46 53.69769 9.80085 6978 ft 287 kts 250°
2026-04-21 13:46 53.69080 9.76891 7836 ft 292 kts 250°
2026-04-21 13:46 53.68393 9.73643 8728 ft 296 kts 250°
2026-04-21 13:46 53.67712 9.70335 9608 ft 301 kts 251°
2026-04-21 13:47 53.67034 9.66955 10367 ft 311 kts 251°
2026-04-21 13:47 53.66421 9.63316 10661 ft 335 kts 260°
2026-04-21 13:47 53.66256 9.59326 11196 ft 346 kts 274°
2026-04-21 13:47 53.66611 9.55297 11922 ft 349 kts 287°
2026-04-21 13:48 53.67477 9.51477 12665 ft 351 kts 300°
2026-04-21 13:48 53.68687 9.47883 13428 ft 354 kts 303°
2026-04-21 13:48 53.69920 9.44259 14171 ft 358 kts 303°
2026-04-21 13:48 53.71165 9.40587 14821 ft 362 kts 303°
2026-04-21 13:49 53.72421 9.36860 15474 ft 366 kts 302°
2026-04-21 13:49 53.73684 9.33101 16134 ft 370 kts 302°
2026-04-21 13:49 53.74958 9.29299 16794 ft 374 kts 302°
2026-04-21 13:49 53.76239 9.25464 17450 ft 377 kts 302°
2026-04-21 13:50 53.77519 9.21622 18091 ft 381 kts 302°
2026-04-21 13:50 53.78840 9.17654 18722 ft 385 kts 302°
2026-04-21 13:50 53.80141 9.13739 19258 ft 389 kts 302°
2026-04-21 13:50 53.81471 9.09734 19799 ft 392 kts 302°
2026-04-21 13:51 53.82854 9.05732 20327 ft 395 kts 307°
2026-04-21 13:51 53.84550 9.02082 20847 ft 396 kts 314°
2026-04-21 13:51 53.86348 8.98527 21364 ft 399 kts 314°
2026-04-21 13:51 53.88163 8.94935 21859 ft 403 kts 314°
2026-04-21 13:52 53.89988 8.91305 22373 ft 406 kts 314°
2026-04-21 13:52 53.91828 8.87637 22866 ft 410 kts 314°
2026-04-21 13:52 53.93681 8.83934 23351 ft 413 kts 314°
2026-04-21 13:52 53.95550 8.80197 23832 ft 417 kts 314°
2026-04-21 13:53 53.97434 8.76428 24246 ft 420 kts 314°
2026-04-21 13:53 53.99330 8.72624 24636 ft 423 kts 314°
2026-04-21 13:53 54.00590 8.70091 24895 ft 425 kts 313°
2026-04-21 13:53 54.02504 8.66233 25281 ft 428 kts 313°
2026-04-21 13:54 54.04432 8.62343 25660 ft 431 kts 313°
2026-04-21 13:54 54.06375 8.58425 26038 ft 434 kts 313°
2026-04-21 13:54 54.08329 8.54477 26405 ft 438 kts 313°
2026-04-21 13:54 54.10294 8.50494 26776 ft 441 kts 313°
2026-04-21 13:55 54.12270 8.46480 27134 ft 444 kts 313°
2026-04-21 13:55 54.14258 8.42431 27494 ft 446 kts 313°
2026-04-21 13:55 54.16257 8.38354 27848 ft 449 kts 313°
2026-04-21 13:55 54.18269 8.34248 28199 ft 452 kts 313°
2026-04-21 13:56 54.20296 8.30113 28549 ft 455 kts 313°
2026-04-21 13:56 54.22330 8.25961 28888 ft 458 kts 313°
2026-04-21 13:56 54.24386 8.21756 29223 ft 461 kts 313°
2026-04-21 13:56 54.26443 8.17542 29565 ft 464 kts 313°
2026-04-21 13:57 54.28515 8.13287 29903 ft 466 kts 313°
2026-04-21 13:57 54.30595 8.09003 30249 ft 469 kts 313°
2026-04-21 13:57 54.32687 8.04688 30548 ft 472 kts 313°
2026-04-21 13:57 54.34786 8.00345 30817 ft 474 kts 312°
2026-04-21 13:58 54.36892 7.95980 31095 ft 476 kts 312°
2026-04-21 13:58 54.39006 7.91584 31386 ft 477 kts 312°
2026-04-21 13:58 54.41115 7.87194 31674 ft 478 kts 312°
2026-04-21 13:58 54.43234 7.82780 31996 ft 479 kts 312°
2026-04-21 13:59 54.45347 7.78376 32406 ft 477 kts 312°
2026-04-21 13:59 54.47452 7.73983 32815 ft 475 kts 312°
2026-04-21 13:59 54.49547 7.69602 33211 ft 473 kts 312°
2026-04-21 13:59 54.51635 7.65233 33627 ft 472 kts 312°
2026-04-21 14:00 54.53715 7.60876 34038 ft 470 kts 312°
2026-04-21 14:00 54.55784 7.56530 34431 ft 468 kts 311°
2026-04-21 14:00 54.57818 7.52248 34766 ft 467 kts 311°
2026-04-21 14:00 54.59866 7.47914 35090 ft 466 kts 311°
2026-04-21 14:01 54.61906 7.43585 35410 ft 464 kts 311°
2026-04-21 14:01 54.63936 7.39266 35715 ft 463 kts 311°
2026-04-21 14:01 54.65962 7.34956 36012 ft 461 kts 311°
2026-04-21 14:01 54.67982 7.30660 36311 ft 460 kts 311°
2026-04-21 14:02 54.69997 7.26375 36600 ft 459 kts 311°
2026-04-21 14:02 54.72032 7.22040 36881 ft 457 kts 311°
2026-04-21 14:02 54.74005 7.17827 37151 ft 456 kts 311°
2026-04-21 14:03 54.78005 7.09254 37682 ft 454 kts 311°
2026-04-21 14:03 54.79958 7.05055 37925 ft 453 kts 310°
2026-04-21 14:03 54.81930 7.00804 38176 ft 452 kts 310°
2026-04-21 14:03 54.83898 6.96556 38384 ft 452 kts 310°
2026-04-21 14:04 54.85861 6.92306 38439 ft 451 kts 310°
2026-04-21 14:04 54.89776 6.83826 38435 ft 449 kts 310°
2026-04-21 14:05 54.93686 6.75350 38436 ft 449 kts 310°
2026-04-21 14:05 54.97553 6.66810 38441 ft 450 kts 306°
2026-04-21 14:06 55.00242 6.56974 38442 ft 454 kts 286°
2026-04-21 14:06 55.01341 6.46138 38443 ft 455 kts 279°
2026-04-21 14:07 55.02266 6.35225 38443 ft 455 kts 279°
2026-04-21 14:07 55.03183 6.24298 38447 ft 456 kts 279°
2026-04-21 14:08 55.04093 6.13361 38451 ft 456 kts 279°
2026-04-21 14:08 55.04976 6.02427 38456 ft 456 kts 279°
2026-04-21 14:09 55.05860 5.91464 38454 ft 456 kts 279°
2026-04-21 14:09 55.06740 5.80510 38460 ft 456 kts 279°
2026-04-21 14:10 55.07612 5.69561 38467 ft 456 kts 279°
2026-04-21 14:10 55.08469 5.58606 38469 ft 456 kts 278°
2026-04-21 14:11 55.09314 5.47645 38467 ft 455 kts 278°
2026-04-21 14:11 55.10152 5.36682 38468 ft 455 kts 278°
2026-04-21 14:12 55.10983 5.25720 38472 ft 455 kts 278°
2026-04-21 14:12 55.11797 5.14754 38475 ft 455 kts 278°
2026-04-21 14:13 55.12598 5.03797 38468 ft 455 kts 278°
2026-04-21 14:13 55.12975 4.92834 38471 ft 456 kts 272°
2026-04-21 14:14 55.13102 4.81759 38466 ft 456 kts 272°
2026-04-21 14:14 55.13224 4.70677 38472 ft 456 kts 272°
2026-04-21 14:15 55.13340 4.59589 38474 ft 456 kts 272°
2026-04-21 14:15 55.13437 4.48494 38474 ft 457 kts 271°
2026-04-21 14:16 55.13532 4.37400 38477 ft 456 kts 271°
2026-04-21 14:16 55.13621 4.26311 38477 ft 456 kts 271°
2026-04-21 14:17 55.13694 4.15227 38480 ft 456 kts 271°
2026-04-21 14:17 55.13752 4.04166 38482 ft 455 kts 271°
2026-04-21 14:18 55.13801 3.93101 38485 ft 455 kts 272°
2026-04-21 14:18 55.14039 3.82058 38489 ft 454 kts 274°
2026-04-21 14:19 55.14428 3.71039 38489 ft 454 kts 274°
2026-04-21 14:19 55.14785 3.60017 38498 ft 454 kts 274°
2026-04-21 14:20 55.15076 3.48995 38496 ft 454 kts 273°
2026-04-21 14:20 55.15343 3.37977 38496 ft 453 kts 273°
2026-04-21 14:21 55.15622 3.26966 38501 ft 453 kts 274°
2026-04-21 14:21 55.15900 3.15972 38501 ft 453 kts 274°
2026-04-21 14:22 55.16155 3.04963 38505 ft 453 kts 273°
2026-04-21 14:22 55.16387 2.93953 38505 ft 453 kts 273°
2026-04-21 14:23 55.16612 2.82945 38508 ft 453 kts 273°
2026-04-21 14:23 55.16837 2.71940 38504 ft 453 kts 273°
2026-04-21 14:24 55.17051 2.60931 38506 ft 453 kts 273°
2026-04-21 14:24 55.17253 2.49992 38505 ft 453 kts 273°
2026-04-21 14:25 55.17448 2.38902 38502 ft 453 kts 272°
2026-04-21 14:25 55.17629 2.27951 38508 ft 453 kts 272°
2026-04-21 14:26 55.17807 2.16921 38512 ft 454 kts 272°
2026-04-21 14:26 55.17968 2.05882 38514 ft 454 kts 272°
2026-04-21 14:27 55.18120 1.94837 38514 ft 454 kts 272°
2026-04-21 14:27 55.18261 1.83801 38515 ft 454 kts 272°
2026-04-21 14:28 55.18407 1.72755 38520 ft 454 kts 272°
2026-04-21 14:28 55.18534 1.61712 38518 ft 454 kts 272°
2026-04-21 14:29 55.18640 1.50665 38519 ft 453 kts 272°
2026-04-21 14:29 55.18734 1.39648 38520 ft 453 kts 272°
2026-04-21 14:30 55.18833 1.28626 38520 ft 453 kts 272°
2026-04-21 14:30 55.18925 1.17614 38522 ft 452 kts 272°
2026-04-21 14:31 55.18996 1.06607 38534 ft 452 kts 271°
2026-04-21 14:31 55.19060 0.95610 38527 ft 452 kts 271°
2026-04-21 14:32 55.19111 0.84624 38526 ft 451 kts 271°
2026-04-21 14:32 55.19159 0.73652 38531 ft 451 kts 271°
2026-04-21 14:33 55.19199 0.62694 38527 ft 450 kts 271°
2026-04-21 14:33 55.19225 0.51762 38536 ft 449 kts 271°
2026-04-21 14:34 55.19230 0.40835 38523 ft 449 kts 271°
2026-04-21 14:34 55.19227 0.29907 38529 ft 448 kts 271°
2026-04-21 14:35 55.19226 0.19007 38535 ft 448 kts 271°
2026-04-21 14:35 55.19213 0.08105 38526 ft 448 kts 271°
2026-04-21 14:36 55.19186 -0.02714 38537 ft 447 kts 271°
2026-04-21 14:36 55.19154 -0.13598 38528 ft 447 kts 270°
2026-04-21 14:37 55.19122 -0.24475 38533 ft 447 kts 270°
2026-04-21 14:37 55.19070 -0.35340 38534 ft 446 kts 270°
2026-04-21 14:38 55.19009 -0.46193 38543 ft 446 kts 270°
2026-04-21 14:38 55.18933 -0.57043 38544 ft 446 kts 270°
2026-04-21 14:39 55.18850 -0.67891 38535 ft 446 kts 270°
2026-04-21 14:39 55.18762 -0.78741 38289 ft 447 kts 270°
2026-04-21 14:39 55.18713 -0.84233 37364 ft 453 kts 270°
2026-04-21 14:40 55.18677 -0.87960 36931 ft 453 kts 270°
2026-04-21 14:40 55.18622 -0.93446 36364 ft 450 kts 270°
2026-04-21 14:40 55.18564 -0.98910 35848 ft 446 kts 270°
2026-04-21 14:40 55.18500 -1.04310 35313 ft 443 kts 268°
2026-04-21 14:41 55.18199 -1.09665 34783 ft 441 kts 264°
2026-04-21 14:41 55.17843 -1.14982 34193 ft 438 kts 264°
2026-04-21 14:41 55.17485 -1.20249 33668 ft 433 kts 264°
2026-04-21 14:41 55.17130 -1.25456 33145 ft 429 kts 264°
2026-04-21 14:42 55.16777 -1.30615 32632 ft 425 kts 263°
2026-04-21 14:42 55.16427 -1.35722 32123 ft 421 kts 263°
2026-04-21 14:42 55.16082 -1.40716 31639 ft 418 kts 263°
2026-04-21 14:42 55.15734 -1.45738 31139 ft 414 kts 262°
2026-04-21 14:43 55.15387 -1.50716 30668 ft 411 kts 262°
2026-04-21 14:43 55.15036 -1.55722 30142 ft 407 kts 262°
2026-04-21 14:43 55.14693 -1.60535 29695 ft 402 kts 262°
2026-04-21 14:43 55.14348 -1.65349 29249 ft 396 kts 262°
2026-04-21 14:44 55.14006 -1.70098 28818 ft 391 kts 262°
2026-04-21 14:44 55.13669 -1.74789 28390 ft 387 kts 262°
2026-04-21 14:44 55.13335 -1.79415 27954 ft 382 kts 262°
2026-04-21 14:44 55.13001 -1.84012 27534 ft 379 kts 262°
2026-04-21 14:45 55.12688 -1.88553 27091 ft 376 kts 265°
2026-04-21 14:45 55.12749 -1.93097 26650 ft 374 kts 277°
2026-04-21 14:45 55.13335 -1.97508 26182 ft 373 kts 290°
2026-04-21 14:45 55.14417 -2.01616 25688 ft 372 kts 301°
2026-04-21 14:46 55.15720 -2.05520 25196 ft 372 kts 301°
2026-04-21 14:46 55.17014 -2.09434 24713 ft 372 kts 301°
2026-04-21 14:46 55.18301 -2.13356 24206 ft 372 kts 301°
2026-04-21 14:46 55.19582 -2.17277 23746 ft 369 kts 301°
2026-04-21 14:47 55.20848 -2.21151 23232 ft 368 kts 301°
2026-04-21 14:47 55.22116 -2.25029 22884 ft 363 kts 301°
2026-04-21 14:47 55.23359 -2.28832 22564 ft 357 kts 301°
2026-04-21 14:47 55.24585 -2.32593 22148 ft 353 kts 301°
2026-04-21 14:48 55.25792 -2.36309 21537 ft 350 kts 301°
2026-04-21 14:48 55.26992 -2.40014 20900 ft 348 kts 301°
2026-04-21 14:48 55.28182 -2.43680 20368 ft 346 kts 301°
2026-04-21 14:48 55.29369 -2.47333 19926 ft 343 kts 301°
2026-04-21 14:49 55.30547 -2.50964 19487 ft 341 kts 301°
2026-04-21 14:49 55.31719 -2.54593 19029 ft 342 kts 301°
2026-04-21 14:49 55.32896 -2.58239 18552 ft 344 kts 301°
2026-04-21 14:49 55.34065 -2.61871 18270 ft 339 kts 301°
2026-04-21 14:50 55.35234 -2.65500 17732 ft 342 kts 301°
2026-04-21 14:50 55.36372 -2.69047 17529 ft 334 kts 301°
2026-04-21 14:50 55.37503 -2.72581 17142 ft 329 kts 301°
2026-04-21 14:50 55.38622 -2.76083 16612 ft 327 kts 301°
2026-04-21 14:51 55.39735 -2.79564 16095 ft 326 kts 301°
2026-04-21 14:51 55.40843 -2.83036 15523 ft 326 kts 301°
2026-04-21 14:51 55.41951 -2.86504 15060 ft 324 kts 301°
2026-04-21 14:51 55.43050 -2.89946 14632 ft 322 kts 301°
2026-04-21 14:52 55.44140 -2.93374 14200 ft 320 kts 301°
2026-04-21 14:52 55.45222 -2.96785 13757 ft 320 kts 301°
2026-04-21 14:52 55.46307 -3.00210 13433 ft 318 kts 301°
2026-04-21 14:52 55.47395 -3.03601 13510 ft 318 kts 301°
2026-04-21 14:53 55.48496 -3.06992 13080 ft 325 kts 301°
2026-04-21 14:53 55.49627 -3.10465 12725 ft 323 kts 301°
2026-04-21 14:53 55.50727 -3.13855 12530 ft 314 kts 301°
2026-04-21 14:53 55.51797 -3.17180 12056 ft 310 kts 301°
2026-04-21 14:54 55.52855 -3.20482 11566 ft 308 kts 301°
2026-04-21 14:54 55.53905 -3.23760 11044 ft 305 kts 300°
2026-04-21 14:54 55.54945 -3.27008 10481 ft 303 kts 300°
2026-04-21 14:54 55.55977 -3.30233 9849 ft 300 kts 300°
2026-04-21 14:55 55.57002 -3.33437 9255 ft 299 kts 301°
2026-04-21 14:55 55.58028 -3.36642 8830 ft 300 kts 301°
2026-04-21 14:55 55.59055 -3.39850 8433 ft 299 kts 301°
2026-04-21 14:55 55.60075 -3.43052 8044 ft 298 kts 301°
2026-04-21 14:56 55.61080 -3.46222 7874 ft 292 kts 300°
2026-04-21 14:56 55.62075 -3.49362 7774 ft 293 kts 300°
2026-04-21 14:56 55.63070 -3.52502 7657 ft 292 kts 300°
2026-04-21 14:56 55.64066 -3.55632 7522 ft 292 kts 302°
2026-04-21 14:57 55.65337 -3.58377 7241 ft 288 kts 321°
2026-04-21 14:57 55.66891 -3.60712 6600 ft 295 kts 323°
2026-04-21 14:57 55.68461 -3.62990 6302 ft 285 kts 324°
2026-04-21 14:57 55.69950 -3.65127 6090 ft 266 kts 324°
2026-04-21 14:58 55.71342 -3.67127 5885 ft 249 kts 324°
2026-04-21 14:58 55.72648 -3.69011 5705 ft 236 kts 324°
2026-04-21 14:58 55.73907 -3.70828 5526 ft 232 kts 325°
2026-04-21 14:58 55.75156 -3.72628 5351 ft 231 kts 325°
2026-04-21 14:59 55.76359 -3.74521 5158 ft 230 kts 320°
2026-04-21 14:59 55.77493 -3.76502 4992 ft 226 kts 321°
2026-04-21 14:59 55.78776 -3.77823 4859 ft 204 kts 352°
2026-04-21 14:59 55.80100 -3.77887 4708 ft 181 kts 20°
2026-04-21 15:00 55.81182 -3.77004 4584 ft 166 kts 44°
2026-04-21 15:00 55.81917 -3.75504 4488 ft 159 kts 63°
2026-04-21 15:00 55.82495 -3.73822 4387 ft 159 kts 63°
2026-04-21 15:00 55.83072 -3.72146 4242 ft 159 kts 63°
2026-04-21 15:01 55.83648 -3.70473 4119 ft 158 kts 62°
2026-04-21 15:01 55.84222 -3.68802 4050 ft 158 kts 62°
2026-04-21 15:01 55.84798 -3.67128 3891 ft 158 kts 62°
2026-04-21 15:01 55.85369 -3.65464 3685 ft 157 kts 62°
2026-04-21 15:02 55.85939 -3.63804 3470 ft 157 kts 62°
2026-04-21 15:02 55.86510 -3.62140 3255 ft 157 kts 62°
2026-04-21 15:02 55.87071 -3.60500 3044 ft 157 kts 62°
2026-04-21 15:02 55.87647 -3.58820 2822 ft 158 kts 61°
2026-04-21 15:03 55.88223 -3.57136 2603 ft 158 kts 61°
2026-04-21 15:03 55.88779 -3.55512 2409 ft 154 kts 61°
2026-04-21 15:03 55.89329 -3.53905 2178 ft 148 kts 61°
2026-04-21 15:03 55.89837 -3.52417 1951 ft 135 kts 61°
2026-04-21 15:04 55.90315 -3.50998 1736 ft 130 kts 61°
2026-04-21 15:04 55.90773 -3.49658 1556 ft 128 kts 61°
2026-04-21 15:04 55.91255 -3.48330 1401 ft 127 kts 61°
2026-04-21 15:04 55.91707 -3.46981 1198 ft 127 kts 61°
2026-04-21 15:05 55.92151 -3.45631 1034 ft 126 kts 59°
2026-04-21 15:05 55.93063 -3.42970 734 ft 125 kts 62°
2026-04-21 15:05 55.93508 -3.41638 554 ft 125 kts 59°
2026-04-21 15:06 55.93955 -3.40310 337 ft 124 kts 60°
2026-04-21 15:06 55.94410 -3.39009 202 ft 123 kts 59°
2026-04-21 15:06 55.94840 -3.37743 112 ft 107 kts 60°
2026-04-21 15:06 55.95135 -3.36848 114 ft 59 kts 59°
2026-04-21 15:07 55.95251 -3.36503 111 ft 17 kts 65°
2026-04-21 15:07 55.95233 -3.36399 112 ft 7 kts 138°
2026-04-21 15:07 55.95199 -3.36358 114 ft 8 kts 148°
2026-04-21 15:07 55.95160 -3.36317 114 ft 5 kts 155°
2026-04-21 15:08 55.95115 -3.36344 113 ft 11 kts 230°
2026-04-21 15:08 55.95063 -3.36396 115 ft 8 kts 171°
2026-04-21 15:08 55.95017 -3.36406 114 ft 6 kts 216°
2026-04-21 15:08 55.94987 -3.36410 115 ft 5 kts 156°
2026-04-21 15:09 55.94961 -3.36379 113 ft 3 kts 148°
2026-04-21 15:09 55.94947 -3.36365 116 ft 1 kts 148°
2026-04-21 15:09 55.94944 -3.36361 114 ft 1 kts 149°
2026-04-21 15:09 55.94942 -3.36360 114 ft 0 kts 149°
2026-04-21 15:11 55.94942 -3.36359 114 ft 0 kts 149°